KOREASAT 7

Last updated on Wed Jul 16 2025 00:02:48 GMT+0000 (Coordinated Universal Time)

1 42691U 17023A 25196.11989132 -.00000354 00000+0 00000+0 0 9993 2 42691 0.0321 48.5805 0000863 78.6562 325.0210 1.00270624 29995
UTC large
Height (km)
Speed (km/s)
/
Latitude / Longitude
Inclination (degrees)
Orbital Period (minutes)
Azimuth
Elevation
Range (km)
Doppler Factor

Next 0 passes for location: London (51.5072 / 0.1276)

Sorry there are no passes over London.